Regional Weather Roundup
Issued by NWS Green Bay, WI

Home | Current Version | Previous Version | Text Only | Print | Product List | Glossary On
Versions: 1 2 3 4 5 6 7 8 9 10 11 12 13 14 15 16 17 18 19 20 21 22 23 24 25 26 27 28 29 30 31 32 33 34 35 36 37 38 39 40 41 42 43 44 45 46 47 48 49 50
000
ASUS43 KGRB 071511
RWRGRB

NORTH-CENTRAL AND NORTHEAST WISCONSIN REGIONAL WEATHER ROUNDUP
NATIONAL WEATHER SERVICE GREEN BAY WI
1000 AM CDT TUE JUL 07 2015

WIZ005-009-010>012-018-019-071600-
NORTH CENTRAL WISCONSIN

CITY           SKY/WX    TMP DP  RH WIND       PRES   REMARKS
IRONWOOD       MOSUNNY   55  46  71 N10       30.10S
MANITOWISH WTR MOSUNNY   58  48  70 N9        30.11R
ARBOR VITAE    PTSUNNY   59  49  68 N14G20    30.10R
EAGLE RIVER    PTSUNNY   55  43  62 N15G22    30.09R
LAND O LAKES   PTSUNNY   56  45  68 N14       30.10S
RHINELANDER    CLOUDY    57  44  62 N9G18     30.09R
PHILLIPS       MOSUNNY   56  47  71 N13G18    30.11S
ANTIGO         CLOUDY    56  45  64 N14G23    30.08R
TOMAHAWK       CLOUDY    56  45  66 NW9       30.11R
MERRILL        CLOUDY    57  46  66 N10G20    30.10R
$$

WIZ013-073-071600-
NORTHEAST WISCONSIN

CITY           SKY/WX    TMP DP  RH WIND       PRES   REMARKS
IRON MOUNTAIN  MOSUNNY   59  47  64 N16       30.04R
MARINETTE      CLOUDY    59  46  63 N13       30.03R
OCONTO         CLOUDY    60  48  64 N9G18     30.04R
$$

WIZ017-030-035>037-045-071600-
CENTRAL WISCONSIN

CITY           SKY/WX    TMP DP  RH WIND       PRES   REMARKS
MEDFORD        PTSUNNY   57  46  65 N14G20    30.10S
WAUSAU         PTSUNNY   60  44  55 N10G22    30.08R
MOSINEE        PTSUNNY   57  46  67 N13       30.10R
MARSHFIELD     PTSUNNY   60  44  55 N13       30.10R
WISC RAPIDS    PTSUNNY   64  46  52 NE14G21   30.09R
STEVENS POINT  CLOUDY    58  44  59 N9G18     30.09R
WAUPACA        PTSUNNY   64  50  59 N12       30.06R
SHAWANO        PTSUNNY   62  46  53 N15G22    30.06R
CLINTONVILLE   MOSUNNY   61  45  55 N12       30.06R
$$

WIZ038-039-048-051-071600-
FOX VALLEY

CITY           SKY/WX    TMP DP  RH WIND       PRES   REMARKS
NWS GREEN BAY  PTSUNNY   65  49  56 N13       30.04R
APPLETON       PTSUNNY   61  46  59 N16       30.05R
OSHKOSH        MOSUNNY   65  49  56 N12       30.04R
FOND DU LAC    PTSUNNY   63  49  60 N14       30.04R
$$

WIZ022-050-052-071600-
EAST CENTRAL WISCONSIN

CITY           SKY/WX    TMP DP  RH WIND       PRES   REMARKS
STURGEON BAY   MOSUNNY   59  48  67 N16G24    30.04R
MANITOWOC      MOSUNNY   63  49  60 MISG      30.02R
SHEBOYGAN      MOSUNNY   62  48  60 N13G22    30.02R
$$

LMZ563-521-522-541>543-071600-
LAKESHORE

STATION/POSITION TIME  TEMP    WIND        PRES    VSBY  WAVE
                       AIR SEA DIR/SP/G                  HT/PER
                 (UTC) (F)     (DEG/KT/KT) (MB)    (MI)  (FT/S)
SHEBOYGAN LKSHOR 1500   58      20/ 13/ 14 1016.7R
KEWAUNEE LKSHORE 1400   60     350/ 14/ 19 1015.2R
ALGOMA MARINA    1411           10/ 17/ 22   N/A
NORTHPORT PIER   1400   58     330/ 18/ 22 1015.9R
N MID LAKE BUOY  1450   54 51  310/ 16/ 19 1015.4R         3/ 4
SISTER BAY LKSHO 1429   60     360/ 21/ 25   N/A
CHAMBERS ISLAND  1400   59     320/ 16/ 18 1016.3R
MENOMINEE LKSHOR 1400   58     350/ 14/ 17 1017.0R
$$



USA.gov is the U.S. government's official web portal to all federal, state and local government web resources and services.